Regional Weather Roundup
Issued by NWS

Home | Current Version | Previous Version | Text Only | Print | Product List | Glossary Off
Versions: 1 2 3 4 5 6 7 8 9 10 11 12 13 14 15 16 17 18 19 20 21 22 23 24 25 26 27 28 29 30 31 32 33 34 35 36 37 38 39 40 41 42 43 44 45 46 47 48 49 50

391
ASUS43 KBIS 190810
RWRND

NORTH DAKOTA REGIONAL WEATHER ROUNDUP
NATIONAL WEATHER SERVICE BISMARCK ND
300 AM CDT THU APR 19 2018

NOTE: "FAIR" INDICATES FEW OR NO CLOUDS BELOW 12,000 FEET WITH NO
SIGNIFICANT WEATHER AND/OR OBSTRUCTIONS TO VISIBILITY.


NDZ001>003-009>011-017-190900-
NORTHWEST NORTH DAKOTA

CITY           SKY/WX    TMP DP  RH WIND       PRES   REMARKS
WILLISTON      CLOUDY    33  32  96 E6        30.36S FOG
MINOT          CLOUDY    36  33  89 NW8       30.34S
MINOT AFB      CLOUDY    35  34  96 NW10      30.33S
$$

NDZ018>021-031>035-040>046-190900-
SOUTHWEST NORTH DAKOTA

CITY           SKY/WX    TMP DP  RH WIND       PRES   REMARKS
BISMARCK       CLEAR     28  26  92 W5        30.36R
DICKINSON      CLEAR     32  31  96 CALM      30.30S FOG
GARRISON         N/A     29  28  96 NW7       30.34R
HETTINGER ARPT CLEAR     23  21  92 CALM      30.32S
$$

NDZ004>008-012>016-024-026-027-054-190900-
NORTHEAST NORTH DAKOTA

CITY           SKY/WX    TMP DP  RH WIND       PRES   REMARKS
GRAND FORKS    FAIR      31  29  92 CALM      30.33R
GRND FRKS AFB  FAIR      29  27  90 NW5       30.33R
DEVILS LAKE    FAIR      30  25  81 CALM      30.33S
$$

NDZ022-023-025-028>030-036>039-047>053-190900-
SOUTHEAST NORTH DAKOTA

CITY           SKY/WX    TMP DP  RH WIND       PRES   REMARKS
FARGO          FAIR      30  30 100 CALM      30.32R
JAMESTOWN      CLOUDY    32  26  78 W6        30.32R
$$





USA.gov is the U.S. government's official web portal to all federal, state and local government web resources and services.